• In Kazakhstan
  • List of Countries
  • For 7 days
  • Water Temperature
  • Satellite Maps
  • Weather Map
  • News
  • Weather Widgets
  • user-avatar
    Login

    Hourly Weather Carson City

    Today, 21 September, Thursday

    Time Temperature Precipitation Wind Pressure Humidity
    00:00 +8°C° 0 mm 4 mps 634 mmHg 74%
    01:00 +8°C° 0 mm 3 mps 634 mmHg 76%
    02:00 +7°C° 0 mm 3 mps 634 mmHg 77%
    03:00 +5°C° 0 mm 3 mps 633 mmHg 79%
    04:00 +6°C° 0 mm 2 mps 633 mmHg 80%
    05:00 +6°C° 0 mm 2 mps 634 mmHg 78%
    06:00 +6°C° 0 mm 2 mps 634 mmHg 76%
    07:00 +6°C° 0 mm 2 mps 634 mmHg 75%
    08:00 +7°C° 0.2 mm 2 mps 635 mmHg 66%
    09:00 +8°C° 0.2 mm 3 mps 635 mmHg 57%
    10:00 +9°C° 0.2 mm 3 mps 635 mmHg 48%
    11:00 +10°C° 0.4 mm 4 mps 635 mmHg 47%
    12:00 +10°C° 0.4 mm 4 mps 635 mmHg 45%
    13:00 +10°C° 0.4 mm 5 mps 635 mmHg 44%
    14:00 +10°C° 0.4 mm 4 mps 635 mmHg 46%
    15:00 +10°C° 0.4 mm 4 mps 635 mmHg 49%
    16:00 +10°C° 0.4 mm 4 mps 635 mmHg 51%
    17:00 +8°C° 0.2 mm 4 mps 635 mmHg 56%
    18:00 +8°C° 0.2 mm 3 mps 635 mmHg 61%
    19:00 +7°C° 0.2 mm 3 mps 635 mmHg 66%
    20:00 +6°C° 0.1 mm 2 mps 635 mmHg 68%
    21:00 +6°C° 0.1 mm 2 mps 636 mmHg 69%
    22:00 +6°C° 0.1 mm 2 mps 636 mmHg 70%
    23:00 +6°C° 0 mm 1 mps 636 mmHg 71%

    Tomorrow, 22 September, Friday

    Time Temperature Precipitation Wind Pressure Humidity
    00:00 +6°C° 0 mm 1 mps 635 mmHg 72%
    01:00 +5°C° 0 mm 1 mps 635 mmHg 73%
    02:00 +5°C° 0 mm 1 mps 635 mmHg 72%
    03:00 +5°C° 0 mm 1 mps 635 mmHg 72%
    04:00 +4°C° 0 mm 1 mps 635 mmHg 72%
    05:00 +5°C° 0 mm 1 mps 635 mmHg 69%
    06:00 +6°C° 0 mm 1 mps 636 mmHg 66%
    07:00 +6°C° 0 mm 1 mps 636 mmHg 62%
    08:00 +8°C° 0 mm 1 mps 637 mmHg 56%
    09:00 +10°C° 0 mm 1 mps 637 mmHg 49%
    10:00 +11°C° 0 mm 1 mps 638 mmHg 42%
    11:00 +12°C° 0 mm 1 mps 637 mmHg 40%
    12:00 +13°C° 0 mm 1 mps 637 mmHg 38%
    13:00 +13°C° 0 mm 1 mps 637 mmHg 35%
    14:00 +13°C° 0 mm 2 mps 637 mmHg 36%
    15:00 +13°C° 0 mm 2 mps 637 mmHg 36%
    16:00 +13°C° 0 mm 2 mps 637 mmHg 36%
    17:00 +12°C° 0 mm 2 mps 637 mmHg 39%
    18:00 +10°C° 0 mm 2 mps 637 mmHg 42%
    19:00 +9°C° 0 mm 3 mps 637 mmHg 44%
    20:00 +8°C° 0 mm 2 mps 637 mmHg 46%
    21:00 +8°C° 0 mm 2 mps 637 mmHg 47%
    22:00 +7°C° 0 mm 2 mps 637 mmHg 49%
    23:00 +7°C° 0 mm 2 mps 637 mmHg 51%

    Day after tomorrow, 23 September, Saturday

    Time Temperature Precipitation Wind Pressure Humidity
    00:00 +6°C° 0 mm 2 mps 637 mmHg 52%
    01:00 +7°C° 0 mm 1 mps 637 mmHg 54%
    02:00 +6°C° 0 mm 1 mps 637 mmHg 55%
    03:00 +6°C° 0 mm 1 mps 637 mmHg 55%
    04:00 +6°C° 0 mm 1 mps 637 mmHg 56%
    05:00 +6°C° 0 mm 1 mps 637 mmHg 53%
    06:00 +7°C° 0 mm 1 mps 638 mmHg 51%
    07:00 +8°C° 0 mm 1 mps 638 mmHg 48%
    08:00 +8°C° 0 mm 2 mps 639 mmHg 43%
    09:00 +10°C° 0 mm 2 mps 640 mmHg 38%
    10:00 +12°C° 0 mm 2 mps 640 mmHg 33%
    11:00 +13°C° 0 mm 2 mps 640 mmHg 30%
    12:00 +15°C° 0 mm 2 mps 640 mmHg 28%
    13:00 +16°C° 0 mm 2 mps 640 mmHg 26%
    14:00 +16°C° 0 mm 2 mps 640 mmHg 26%
    15:00 +15°C° 0 mm 2 mps 640 mmHg 26%
    16:00 +15°C° 0 mm 2 mps 640 mmHg 27%
    17:00 +14°C° 0 mm 2 mps 640 mmHg 31%
    18:00 +12°C° 0 mm 2 mps 640 mmHg 36%
    19:00 +9°C° 0 mm 2 mps 639 mmHg 40%
    20:00 +10°C° 0 mm 1 mps 640 mmHg 41%
    21:00 +10°C° 0 mm 1 mps 640 mmHg 42%
    22:00 +9°C° 0 mm 1 mps 640 mmHg 43%
    23:00 +9°C° 0 mm 1 mps 640 mmHg 44%

    24 September, Sunday

    Time Temperature Precipitation Wind Pressure Humidity
    00:00 +8°C° 0 mm 1 mps 639 mmHg 45%
    01:00 +8°C° 0 mm 1 mps 639 mmHg 46%
    02:00 +8°C° 0 mm 1 mps 639 mmHg 47%
    03:00 +8°C° 0 mm 1 mps 639 mmHg 48%
    04:00 +7°C° 0 mm 1 mps 640 mmHg 49%
    05:00 +8°C° 0 mm 1 mps 640 mmHg 47%
    06:00 +9°C° 0 mm 1 mps 640 mmHg 45%
    07:00 +9°C° 0 mm 1 mps 641 mmHg 43%
    08:00 +11°C° 0 mm 1 mps 641 mmHg 40%
    09:00 +13°C° 0 mm 1 mps 642 mmHg 36%
    10:00 +15°C° 0 mm 2 mps 642 mmHg 32%
    11:00 +16°C° 0 mm 1 mps 642 mmHg 30%
    12:00 +18°C° 0 mm 1 mps 642 mmHg 28%
    13:00 +19°C° 0 mm 1 mps 642 mmHg 26%
    14:00 +18°C° 0 mm 2 mps 642 mmHg 26%
    15:00 +18°C° 0 mm 2 mps 642 mmHg 26%
    16:00 +18°C° 0 mm 2 mps 642 mmHg 26%
    17:00 +17°C° 0 mm 2 mps 641 mmHg 30%
    18:00 +15°C° 0 mm 2 mps 641 mmHg 34%
    19:00 +13°C° 0 mm 1 mps 641 mmHg 39%
    20:00 +13°C° 0 mm 1 mps 641 mmHg 39%
    21:00 +12°C° 0 mm 1 mps 641 mmHg 40%
    22:00 +12°C° 0 mm 1 mps 640 mmHg 41%
    23:00 +11°C° 0 mm 1 mps 640 mmHg 41%

    25 September, Monday

    Time Temperature Precipitation Wind Pressure Humidity
    00:00 +11°C° 0 mm 1 mps 640 mmHg 42%
    01:00 +11°C° 0 mm 1 mps 640 mmHg 42%
    02:00 +10°C° 0 mm 1 mps 640 mmHg 43%
    03:00 +10°C° 0 mm 1 mps 640 mmHg 44%
    04:00 +10°C° 0 mm 1 mps 640 mmHg 45%
    05:00 +10°C° 0 mm 1 mps 640 mmHg 43%
    06:00 +11°C° 0 mm 1 mps 640 mmHg 42%
    07:00 +12°C° 0 mm 1 mps 641 mmHg 40%
    08:00 +14°C° 0 mm 2 mps 641 mmHg 36%
    09:00 +16°C° 0 mm 2 mps 642 mmHg 32%
    10:00 +17°C° 0 mm 2 mps 642 mmHg 28%
    11:00 +18°C° 0 mm 3 mps 642 mmHg 27%
    12:00 +19°C° 0 mm 3 mps 642 mmHg 26%
    13:00 +20°C° 0 mm 3 mps 642 mmHg 25%
    14:00 +20°C° 0 mm 4 mps 641 mmHg 25%
    15:00 +20°C° 0 mm 4 mps 641 mmHg 26%
    16:00 +20°C° 0 mm 4 mps 641 mmHg 26%
    17:00 +18°C° 0 mm 4 mps 641 mmHg 30%
    18:00 +16°C° 0 mm 3 mps 641 mmHg 33%
    19:00 +14°C° 0 mm 3 mps 640 mmHg 37%
    20:00 +14°C° 0 mm 2 mps 640 mmHg 39%
    21:00 +14°C° 0 mm 2 mps 640 mmHg 41%
    22:00 +13°C° 0 mm 2 mps 640 mmHg 43%
    23:00 +13°C° 0 mm 2 mps 640 mmHg 45%

    26 September, Tuesday

    Time Temperature Precipitation Wind Pressure Humidity
    00:00 +12°C° 0 mm 2 mps 640 mmHg 47%
    01:00 +12°C° 0 mm 2 mps 640 mmHg 49%
    02:00 +12°C° 0 mm 1 mps 640 mmHg 51%
    03:00 +11°C° 0 mm 1 mps 640 mmHg 53%
    04:00 +11°C° 0 mm 1 mps 640 mmHg 55%
    05:00 +11°C° 0 mm 1 mps 640 mmHg 53%
    06:00 +12°C° 0 mm 1 mps 641 mmHg 51%
    07:00 +13°C° 0 mm 1 mps 641 mmHg 49%
    08:00 +15°C° 0 mm 2 mps 641 mmHg 44%
    09:00 +17°C° 0 mm 2 mps 642 mmHg 38%
    10:00 +18°C° 0 mm 2 mps 642 mmHg 32%
    11:00 +19°C° 0 mm 2 mps 642 mmHg 30%
    12:00 +20°C° 0 mm 3 mps 642 mmHg 27%
    13:00 +22°C° 0 mm 3 mps 642 mmHg 24%
    14:00 +21°C° 0 mm 3 mps 642 mmHg 24%
    15:00 +21°C° 0 mm 3 mps 641 mmHg 24%
    16:00 +21°C° 0 mm 3 mps 641 mmHg 23%
    17:00 +19°C° 0 mm 2 mps 641 mmHg 27%
    18:00 +17°C° 0 mm 2 mps 640 mmHg 31%
    19:00 +15°C° 0 mm 1 mps 640 mmHg 35%
    20:00 +15°C° 0 mm 1 mps 640 mmHg 36%
    21:00 +14°C° 0 mm 1 mps 640 mmHg 37%
    22:00 +14°C° 0 mm 1 mps 640 mmHg 38%
    23:00 +13°C° 0 mm 1 mps 639 mmHg 39%
    Show more